Regional Weather Roundup
Issued by NWS

Home | Current Version | Previous Version | Text Only | Print | Product List | Glossary On
Versions: 1 2 3 4 5 6 7 8 9 10 11 12 13 14 15 16 17 18 19 20 21 22 23 24 25 26 27 28 29 30 31 32 33 34 35 36 37 38 39 40 41 42 43 44 45 46 47 48 49 50
000
ASUS44 KJAN 240010
RWRMS

MISSISSIPPI HOURLY WEATHER ROUNDUP
NATIONAL WEATHER SERVICE JACKSON MS
700 PM CDT SUN APR 23 2017

NOTE: "FAIR: INDICATES FEW OR NO CLOUDS BELOW 12,000 FEET WITH NO
SIGNIFICANT WEATHER AND/OR OBSTRUCTIONS TO VISIBILITY.

MSZ001>002-007>008-010>013-018>021-025>028-034>036-240100-
NORTHWEST MISSISSIPPI

CITY           SKY/WX    TMP DP  RH WIND       PRES   REMARKS
CLEVELAND      CLOUDY    62  48  60 N8        29.94R
GREENWOOD      CLOUDY    59  48  67 N12       29.94R
6HR MIN TEMP:  56; 6HR MAX TEMP:  61;

GREENVILLE     PTCLDY    63  46  54 N12       29.94R
6HR MIN TEMP:  60; 6HR MAX TEMP:  66;

OLIVE BRANCH   MOCLDY   N/A N/A N/A N7        29.91S
OXFORD         FAIR      54  46  76 NW5       29.94R
TUNICA         MOCLDY    57  48  72 N8        29.94F
WINONA         CLOUDY    55  48  76 N3        29.92S
$$

MSZ003>006-009-014>017-022>024-029>033-037>039-240100-
NORTHEAST MISSISSIPPI

CITY           SKY/WX    TMP DP  RH WIND       PRES   REMARKS
COLUMBUS AFB   CLOUDY    53  48  82 NW16      29.89R
6HR MIN TEMP:  53; 6HR MAX TEMP:  58; 6HR PCP: TRACE;

CORINTH        DRIZZLE   54  50  87 NW8       29.88F
GOLDN TRIANGLE CLOUDY    54  43  66 NW14      29.85S
STARKVILLE     CLOUDY    54  46  76 NW9       29.91R
TUPELO         LGT RAIN  51  47  86 NW6       29.90S FOG
6HR MIN TEMP:  51; 6HR MAX TEMP:  57; 6HR PCP: TRACE;

$$

MSZ040-058-240100-
CENTRAL MISSISSIPPI

CITY           SKY/WX    TMP DP  RH WIND       PRES   REMARKS
JACKSON INTL   CLOUDY    59  50  72 NW6       29.92S
6HR MIN TEMP:  56; 6HR MAX TEMP:  60;

JACKSON HAWKNS CLOUDY    59  50  72 N6        29.93S
6HR MIN TEMP:  56; 6HR MAX TEMP:  59;

MADISON        CLOUDY    55  50  82 NW5       29.92S
MERIDIAN KEY   CLOUDY    57  50  77 NW7       29.89S
6HR MIN TEMP:  57; 6HR MAX TEMP:  61; 6HR PCP: TRACE;

MERIDIAN NAS   CLOUDY    57  47  69 NW12      29.89S
6HR MIN TEMP:  57; 6HR MAX TEMP:  61; 6HR PCP:  0.01;

RAYMOND        CLOUDY    59  52  77 CALM      29.93S
VICKSBURG VKS  CLOUDY    66  48  52 N9        29.91R
$$

MSZ059>079-240100-
SOUTH MISSISSIPPI

CITY           SKY/WX    TMP DP  RH WIND       PRES   REMARKS
BROOKHAVEN     CLOUDY    61  52  72 CALM      29.94S
COLUMBIA       CLOUDY    57 N/A N/A NW5       29.95F
HATTIESBURG    CLOUDY    58  49  72 NW8       29.92S
6HR MIN TEMP:  58; 6HR MAX TEMP:  67;

LAUREL         CLOUDY    56  49  78 NW7       29.91F
MCCOMB         CLOUDY    58  48  69 NW7       29.93F
6HR MIN TEMP:  58; 6HR MAX TEMP:  63;

NATCHEZ        CLEAR     61  51  70 W5        29.95S
6HR MIN TEMP:  57; 6HR MAX TEMP:  63;

PINE BELT      CLOUDY    57  48  72 NW5       29.92S
6HR MIN TEMP:  57; 6HR MAX TEMP:  64;

$$

MSZ080>082-240100-
COASTAL MISSISSIPPI

CITY           SKY/WX    TMP DP  RH WIND       PRES   REMARKS
BILOXI         MOCLDY    63  51  64 N17       29.88R
6HR MIN TEMP:  63; 6HR MAX TEMP:  72;

PASCAGOULA     MOCLDY    63  49  60 NW12G21   29.87R
6HR MIN TEMP:  63; 6HR MAX TEMP:  74;

GULFPORT       CLOUDY    63  49  60 N21G31    29.89R
6HR MIN TEMP:  63; 6HR MAX TEMP:  73;

$$

LAZ007>009-015>016-023>026-240100-
NORTHEAST LOUISIANA

CITY           SKY/WX    TMP DP  RH WIND       PRES   REMARKS
BASTROP        FAIR      67  46  46 N3        29.96R
TALLULAH/VBURG MOCLDY    65  47  52 N13G18    29.93S
6HR MIN TEMP:  56; 6HR MAX TEMP:  67;

VIDALIA        FAIR      63  49  61 NW3       29.94S
$$



USA.gov is the U.S. government's official web portal to all federal, state and local government web resources and services.